TimePDT,TemperatureF,Dew PointF,Humidity,Sea Level PressureIn,VisibilityMPH,Wind Direction,Wind SpeedMPH,Gust SpeedMPH,PrecipitationIn,Events,Conditions,WindDirDegrees,DateUTC
12:56 AM,55.9,24.1,29,29.96,10.0,NW,8.1,-,N/A,,Clear,310,2013-04-29 07:56:00
1:56 AM,57.0,27.0,32,29.94,10.0,WNW,9.2,-,N/A,,Clear,290,2013-04-29 08:56:00
2:56 AM,55.0,27.0,34,29.94,10.0,WNW,9.2,-,N/A,,Clear,300,2013-04-29 09:56:00
3:56 AM,52.0,27.0,38,29.94,10.0,NW,6.9,-,N/A,,Clear,310,2013-04-29 10:56:00
4:56 AM,50.0,26.1,39,29.94,10.0,Variable,3.5,-,N/A,,Clear,0,2013-04-29 11:56:00
5:56 AM,43.0,27.0,53,29.94,10.0,South,5.8,-,N/A,,Clear,170,2013-04-29 12:56:00
6:17 AM,42.8,28.4,57,30.03,10.0,South,4.6,-,N/A,,Scattered Clouds,190,2013-04-29 13:17:00
6:56 AM,50.0,28.9,44,29.96,10.0,WSW,4.6,-,N/A,,Scattered Clouds,250,2013-04-29 13:56:00
7:56 AM,59.0,30.0,33,29.96,10.0,Calm,Calm,-,N/A,,Scattered Clouds,0,2013-04-29 14:56:00
8:56 AM,64.9,30.0,27,29.96,10.0,WNW,6.9,-,N/A,,Mostly Cloudy,300,2013-04-29 15:56:00
9:56 AM,66.9,28.0,23,29.93,10.0,Calm,Calm,-,N/A,,Mostly Cloudy,0,2013-04-29 16:56:00
10:56 AM,71.1,28.9,21,29.92,10.0,Variable,4.6,-,N/A,,Overcast,0,2013-04-29 17:56:00
11:56 AM,73.0,30.0,20,29.90,10.0,Calm,Calm,-,N/A,,Overcast,0,2013-04-29 18:56:00
12:56 PM,75.9,30.0,19,29.86,10.0,Variable,3.5,-,N/A,,Overcast,0,2013-04-29 19:56:00
1:56 PM,78.1,30.0,17,29.84,10.0,Calm,Calm,-,N/A,,Overcast,0,2013-04-29 20:56:00
2:56 PM,79.0,28.9,16,29.81,10.0,Calm,Calm,-,N/A,,Overcast,0,2013-04-29 21:56:00
3:56 PM,82.0,26.1,13,29.78,10.0,NNW,11.5,-,N/A,,Overcast,340,2013-04-29 22:56:00
4:56 PM,80.1,24.1,13,29.75,10.0,North,11.5,-,N/A,,Overcast,10,2013-04-29 23:56:00
5:56 PM,78.1,26.1,15,29.75,10.0,NNE,11.5,-,N/A,,Overcast,30,2013-04-30 00:56:00
6:56 PM,75.9,30.0,19,29.74,10.0,NNW,9.2,-,N/A,,Overcast,340,2013-04-30 01:56:00
7:56 PM,72.0,30.0,21,29.75,10.0,North,11.5,-,N/A,,Overcast,10,2013-04-30 02:56:00
8:56 PM,69.1,32.0,25,29.78,10.0,North,11.5,-,N/A,,Scattered Clouds,350,2013-04-30 03:56:00
9:56 PM,66.0,32.0,28,29.80,10.0,North,13.8,-,N/A,,Partly Cloudy,360,2013-04-30 04:56:00
10:56 PM,62.1,24.1,23,29.80,10.0,North,15.0,-,N/A,,Clear,360,2013-04-30 05:56:00
11:56 PM,57.9,25.0,28,29.81,10.0,NE,6.9,-,N/A,,Clear,40,2013-04-30 06:56:00